Starlink 32243

operational
NORAD ID: 60367 Int'l Des: 2024-138 Owner: SPXS Country: US Constellation: starlink
LEOCIRCULAR

Starlink 32243について

説明を読み込み中...

リアルタイム位置

3D地球を読み込み中...

次回通過

高度履歴

Altitude vs Time

uPlot chart will show altitude changes over time

軌道要素

1 60367U 24138N 25305.97949548 .00000192 00000-0 18627-4 0 9990
2 60367 53.1591 182.8705 0001315 96.9059 263.2091 15.30183648 71074
Epoch: Nov 1, 2025 • Age: 46 hours

現在のステータス

高度 477.6 km
速度 7.63 km/s
衛星直下点 -8.50°S, 10.04°W
打ち上げ日 Aug 4, 2024
運用期間 1.2 years
タイプ internet

技術仕様

分類 Payload
質量 730.00 kg
乾燥質量 700.00 kg
総質量 730.00 kg
長さ 0.30 m
直径 4.10 m
スパン 29.00 m
形状 Box + pan
製造者 SPXS
バスタイプ Starlink V2M
フェーズステータス In Orbit
所有者/国 SPXS/US

大規模コンステレーション

Loading constellations...